Time,TemperatureF,DewpointF,PressureIn,WindDirection,WindDirectionDegrees,WindSpeedMPH,WindSpeedGustMPH,Humidity,HourlyPrecipIn,Conditions,Clouds,dailyrainin,SoftwareType,DateUTC
2013-04-12 00:03:00,38.0,32.0,-100.00,SSW,200,6.0,11.0,79,-99.99,,,-99.99,,2013-04-12 05:03:00,
2013-04-12 00:12:00,38.0,32.0,-100.00,SSW,200,6.0,11.0,79,-99.99,,,-99.99,,2013-04-12 05:12:00,
2013-04-12 01:22:00,37.0,32.0,-100.00,SSW,200,5.0,11.0,80,-99.99,,,-99.99,,2013-04-12 06:22:00,
2013-04-12 01:32:00,37.0,32.0,-100.00,SSW,200,5.0,11.0,80,-99.99,,,-99.99,,2013-04-12 06:32:00,
2013-04-12 01:42:00,37.0,32.0,-100.00,SW,215,3.0,10.0,81,-99.99,,,-99.99,,2013-04-12 06:42:00,
2013-04-12 01:52:00,37.0,32.0,-100.00,SSW,195,5.0,14.0,82,-99.99,,,-99.99,,2013-04-12 06:52:00,
2013-04-12 02:01:00,37.0,32.0,-100.00,SSW,195,5.0,14.0,82,-99.99,,,-99.99,,2013-04-12 07:01:00,
2013-04-12 02:11:00,38.0,32.0,-100.00,SW,225,5.0,11.0,81,-99.99,,,-99.99,,2013-04-12 07:11:00,
2013-04-12 02:22:00,38.0,33.0,-100.00,SW,215,4.0,10.0,82,-99.99,,,-99.99,,2013-04-12 07:22:00,
2013-04-12 02:32:00,38.0,33.0,-100.00,SW,215,4.0,10.0,82,-99.99,,,-99.99,,2013-04-12 07:32:00,
2013-04-12 02:42:00,38.0,32.0,-100.00,SSW,205,4.0,8.0,81,-99.99,,,-99.99,,2013-04-12 07:42:00,
2013-04-12 02:52:00,38.0,32.0,-100.00,SW,215,6.0,13.0,81,-99.99,,,-99.99,,2013-04-12 07:52:00,
2013-04-12 03:03:00,38.0,32.0,-100.00,SW,215,6.0,13.0,81,-99.99,,,-99.99,,2013-04-12 08:03:00,
2013-04-12 03:12:00,38.0,33.0,-100.00,SW,220,1.0,6.0,83,-99.99,,,-99.99,,2013-04-12 08:12:00,
2013-04-12 03:22:00,38.0,33.0,-100.00,SSE,160,2.0,7.0,84,-99.99,,,-99.99,,2013-04-12 08:22:00,
2013-04-12 03:32:00,38.0,33.0,-100.00,SSE,160,2.0,7.0,84,-99.99,,,-99.99,,2013-04-12 08:32:00,
2013-04-12 03:42:00,37.0,33.0,-100.00,South,190,4.0,10.0,83,-99.99,,,-99.99,,2013-04-12 08:42:00,
2013-04-12 03:52:00,37.0,33.0,-100.00,SSW,200,4.0,7.0,83,-99.99,,,-99.99,,2013-04-12 08:52:00,
2013-04-12 04:02:00,37.0,33.0,-100.00,SSW,200,4.0,7.0,83,-99.99,,,-99.99,,2013-04-12 09:02:00,
2013-04-12 04:12:00,38.0,33.0,-100.00,SSW,200,2.0,6.0,84,-99.99,,,-99.99,,2013-04-12 09:12:00,
2013-04-12 04:22:00,38.0,33.0,-100.00,SSW,210,6.0,10.0,84,-99.99,,,-99.99,,2013-04-12 09:22:00,
2013-04-12 04:33:00,38.0,33.0,-100.00,SSW,210,6.0,10.0,84,-99.99,,,-99.99,,2013-04-12 09:33:00,
2013-04-12 04:43:00,37.0,34.0,-100.00,SW,215,6.0,9.0,89,-99.99,,,-99.99,,2013-04-12 09:43:00,
2013-04-12 04:53:00,37.0,34.0,-100.00,SW,225,4.0,11.0,90,-99.99,,,-99.99,,2013-04-12 09:53:00,
2013-04-12 05:03:00,37.0,34.0,-100.00,SW,225,4.0,11.0,90,-99.99,,,-99.99,,2013-04-12 10:03:00,
2013-04-12 05:12:00,37.0,34.0,-100.00,SSW,205,3.0,9.0,90,-99.99,,,-99.99,,2013-04-12 10:12:00,
2013-04-12 05:23:00,37.0,35.0,-100.00,SSW,210,2.0,10.0,91,-99.99,,,-99.99,,2013-04-12 10:23:00,
2013-04-12 05:34:00,37.0,35.0,-100.00,SSW,210,2.0,10.0,91,-99.99,,,-99.99,,2013-04-12 10:34:00,
2013-04-12 05:42:00,37.0,35.0,-100.00,SSW,200,6.0,10.0,91,-99.99,,,-99.99,,2013-04-12 10:42:00,
2013-04-12 05:53:00,37.0,36.0,-100.00,WSW,245,4.0,13.0,94,-99.99,,,-99.99,,2013-04-12 10:53:00,
2013-04-12 06:02:00,37.0,36.0,-100.00,WSW,245,4.0,13.0,94,-99.99,,,-99.99,,2013-04-12 11:02:00,
2013-04-12 06:13:00,37.0,36.0,-100.00,SSW,210,4.0,8.0,95,-99.99,,,-99.99,,2013-04-12 11:13:00,
2013-04-12 06:22:00,37.0,36.0,-100.00,SSW,210,4.0,7.0,95,-99.99,,,-99.99,,2013-04-12 11:22:00,
2013-04-12 06:32:00,37.0,36.0,-100.00,SSW,210,4.0,7.0,95,-99.99,,,-99.99,,2013-04-12 11:32:00,
2013-04-12 06:42:00,37.0,36.0,-100.00,SW,215,5.0,9.0,94,-99.99,,,-99.99,,2013-04-12 11:42:00,
2013-04-12 06:52:00,38.0,36.0,-100.00,SSW,205,6.0,9.0,93,-99.99,,,-99.99,,2013-04-12 11:52:00,
2013-04-12 07:02:00,38.0,36.0,-100.00,SSW,205,6.0,9.0,93,-99.99,,,-99.99,,2013-04-12 12:02:00,
2013-04-12 07:13:00,38.0,36.0,-100.00,SW,230,8.0,18.0,92,-99.99,,,-99.99,,2013-04-12 12:13:00,
2013-04-12 07:22:00,37.0,36.0,-100.00,SW,215,5.0,13.0,94,-99.99,,,-99.99,,2013-04-12 12:22:00,
2013-04-12 07:33:00,37.0,36.0,-100.00,SW,215,5.0,13.0,94,-99.99,,,-99.99,,2013-04-12 12:33:00,
2013-04-12 07:42:00,37.0,36.0,-100.00,SW,230,6.0,14.0,95,-99.99,,,-99.99,,2013-04-12 12:42:00,
2013-04-12 07:53:00,37.0,36.0,-100.00,SSW,205,3.0,11.0,96,-99.99,,,-99.99,,2013-04-12 12:53:00,
2013-04-12 08:03:00,37.0,36.0,-100.00,SSW,205,3.0,11.0,96,-99.99,,,-99.99,,2013-04-12 13:03:00,
2013-04-12 08:12:00,37.0,36.0,-100.00,SSW,205,6.0,12.0,96,-99.99,,,-99.99,,2013-04-12 13:12:00,
2013-04-12 08:22:00,37.0,36.0,-100.00,SSW,210,6.0,16.0,96,-99.99,,,-99.99,,2013-04-12 13:22:00,
2013-04-12 08:32:00,37.0,36.0,-100.00,SSW,210,6.0,16.0,96,-99.99,,,-99.99,,2013-04-12 13:32:00,
2013-04-12 08:42:00,38.0,37.0,-100.00,WSW,245,5.0,13.0,96,-99.99,,,-99.99,,2013-04-12 13:42:00,
2013-04-12 08:53:00,38.0,37.0,-100.00,SW,225,6.0,14.0,97,-99.99,,,-99.99,,2013-04-12 13:53:00,
2013-04-12 09:03:00,38.0,37.0,-100.00,SW,225,6.0,14.0,97,-99.99,,,-99.99,,2013-04-12 14:03:00,
2013-04-12 09:13:00,38.0,37.0,-100.00,SSW,210,6.0,13.0,96,-99.99,,,-99.99,,2013-04-12 14:13:00,
2013-04-12 09:23:00,38.0,37.0,-100.00,SW,225,6.0,14.0,95,-99.99,,,-99.99,,2013-04-12 14:23:00,
2013-04-12 09:33:00,38.0,37.0,-100.00,SW,225,6.0,14.0,95,-99.99,,,-99.99,,2013-04-12 14:33:00,
2013-04-12 09:42:00,38.0,36.0,-100.00,SW,225,8.0,16.0,91,-99.99,,,-99.99,,2013-04-12 14:42:00,
2013-04-12 09:53:00,39.0,36.0,-100.00,SW,230,6.0,19.0,88,-99.99,,,-99.99,,2013-04-12 14:53:00,
2013-04-12 10:02:00,39.0,36.0,-100.00,SW,230,6.0,19.0,88,-99.99,,,-99.99,,2013-04-12 15:02:00,
2013-04-12 10:12:00,39.0,36.0,-100.00,SW,235,8.0,15.0,89,-99.99,,,-99.99,,2013-04-12 15:12:00,
2013-04-12 10:22:00,39.0,35.0,-100.00,WSW,245,13.0,21.0,84,-99.99,,,-99.99,,2013-04-12 15:22:00,
2013-04-12 10:33:00,39.0,35.0,-100.00,WSW,245,13.0,21.0,84,-99.99,,,-99.99,,2013-04-12 15:33:00,
2013-04-12 10:43:00,40.0,35.0,-100.00,SW,220,8.0,17.0,84,-99.99,,,-99.99,,2013-04-12 15:43:00,
2013-04-12 10:53:00,40.0,35.0,-100.00,WSW,245,6.0,16.0,83,-99.99,,,-99.99,,2013-04-12 15:53:00,
2013-04-12 11:04:00,40.0,35.0,-100.00,WSW,245,6.0,16.0,83,-99.99,,,-99.99,,2013-04-12 16:04:00,
2013-04-12 11:13:00,40.0,35.0,-100.00,West,270,6.0,17.0,81,-99.99,,,-99.99,,2013-04-12 16:13:00,
2013-04-12 11:23:00,40.0,34.0,-100.00,WSW,255,8.0,17.0,78,-99.99,,,-99.99,,2013-04-12 16:23:00,
2013-04-12 11:33:00,40.0,34.0,-100.00,WSW,255,8.0,17.0,78,-99.99,,,-99.99,,2013-04-12 16:33:00,
2013-04-12 11:42:00,40.0,34.0,-100.00,West,260,6.0,21.0,79,-99.99,,,-99.99,,2013-04-12 16:42:00,
2013-04-12 11:53:00,40.0,33.0,-100.00,WSW,250,7.0,15.0,75,-99.99,,,-99.99,,2013-04-12 16:53:00,
2013-04-12 12:03:00,40.0,33.0,-100.00,WSW,250,7.0,15.0,75,-99.99,,,-99.99,,2013-04-12 17:03:00,
2013-04-12 12:12:00,40.0,33.0,-100.00,WSW,245,6.0,18.0,74,-99.99,,,-99.99,,2013-04-12 17:12:00,
2013-04-12 12:23:00,40.0,33.0,-100.00,SW,235,5.0,13.0,75,-99.99,,,-99.99,,2013-04-12 17:23:00,
2013-04-12 12:33:00,40.0,33.0,-100.00,SW,235,5.0,13.0,75,-99.99,,,-99.99,,2013-04-12 17:33:00,
2013-04-12 12:45:00,39.0,32.0,-100.00,SW,235,10.0,21.0,74,-99.99,,,-99.99,,2013-04-12 17:45:00,
2013-04-12 13:06:00,40.0,32.0,-100.00,WSW,240,11.0,21.0,74,-99.99,,,-99.99,,2013-04-12 18:06:00,
2013-04-12 13:15:00,40.0,32.0,-100.00,WSW,245,9.0,19.0,72,-99.99,,,-99.99,,2013-04-12 18:15:00,
2013-04-12 13:19:00,40.0,33.0,-100.00,SW,230,3.0,16.0,77,-99.99,,,-99.99,,2013-04-12 18:19:00,
2013-04-12 14:26:00,40.0,31.0,-100.00,SW,235,7.0,17.0,71,-99.99,,,-99.99,,2013-04-12 19:26:00,
2013-04-12 14:32:00,40.0,31.0,-100.00,WSW,245,5.0,26.0,71,-99.99,,,-99.99,,2013-04-12 19:32:00,
2013-04-12 14:43:00,40.0,31.0,-100.00,WSW,250,12.0,21.0,71,-99.99,,,-99.99,,2013-04-12 19:43:00,
2013-04-12 14:53:00,40.0,30.0,-100.00,WSW,255,8.0,18.0,68,-99.99,,,-99.99,,2013-04-12 19:53:00,
2013-04-12 15:02:00,40.0,30.0,-100.00,WSW,255,8.0,18.0,68,-99.99,,,-99.99,,2013-04-12 20:02:00,
2013-04-12 15:12:00,40.0,30.0,-100.00,SW,235,8.0,24.0,67,-99.99,,,-99.99,,2013-04-12 20:12:00,
2013-04-12 15:22:00,40.0,30.0,-100.00,SW,220,11.0,21.0,67,-99.99,,,-99.99,,2013-04-12 20:22:00,
2013-04-12 15:32:00,40.0,30.0,-100.00,SW,220,11.0,21.0,67,-99.99,,,-99.99,,2013-04-12 20:32:00,
2013-04-12 15:42:00,41.0,32.0,-100.00,SW,215,5.0,17.0,69,-99.99,,,-99.99,,2013-04-12 20:42:00,
2013-04-12 15:52:00,41.0,31.0,-100.00,SW,225,9.0,16.0,67,-99.99,,,-99.99,,2013-04-12 20:52:00,
2013-04-12 16:02:00,41.0,31.0,-100.00,SW,225,9.0,16.0,67,-99.99,,,-99.99,,2013-04-12 21:02:00,
2013-04-12 16:12:00,41.0,31.0,-100.00,West,260,10.0,24.0,66,-99.99,,,-99.99,,2013-04-12 21:12:00,
2013-04-12 16:22:00,42.0,32.0,-100.00,SW,235,6.0,21.0,69,-99.99,,,-99.99,,2013-04-12 21:22:00,
2013-04-12 16:33:00,42.0,32.0,-100.00,SW,235,6.0,21.0,69,-99.99,,,-99.99,,2013-04-12 21:33:00,
2013-04-12 16:43:00,42.0,32.0,-100.00,SW,235,8.0,22.0,69,-99.99,,,-99.99,,2013-04-12 21:43:00,
2013-04-12 16:53:00,41.0,32.0,-100.00,WSW,240,8.0,18.0,69,-99.99,,,-99.99,,2013-04-12 21:53:00,
2013-04-12 17:02:00,41.0,32.0,-100.00,WSW,240,8.0,18.0,69,-99.99,,,-99.99,,2013-04-12 22:02:00,
2013-04-12 17:13:00,42.0,32.0,-100.00,WSW,245,5.0,17.0,69,-99.99,,,-99.99,,2013-04-12 22:13:00,
2013-04-12 17:22:00,43.0,32.0,-100.00,SW,235,7.0,16.0,65,-99.99,,,-99.99,,2013-04-12 22:22:00,
2013-04-12 17:32:00,43.0,32.0,-100.00,SW,235,7.0,16.0,65,-99.99,,,-99.99,,2013-04-12 22:32:00,
2013-04-12 17:42:00,44.0,32.0,-100.00,WSW,250,7.0,19.0,63,-99.99,,,-99.99,,2013-04-12 22:42:00,
2013-04-12 17:52:00,42.0,32.0,-100.00,WSW,245,5.0,15.0,65,-99.99,,,-99.99,,2013-04-12 22:52:00,
2013-04-12 18:03:00,42.0,32.0,-100.00,WSW,245,5.0,15.0,65,-99.99,,,-99.99,,2013-04-12 23:03:00,
2013-04-12 18:12:00,43.0,33.0,-100.00,SW,225,3.0,11.0,68,-99.99,,,-99.99,,2013-04-12 23:12:00,
2013-04-12 18:22:00,43.0,32.0,-100.00,SSW,210,6.0,15.0,66,-99.99,,,-99.99,,2013-04-12 23:22:00,
2013-04-12 18:32:00,43.0,32.0,-100.00,SSW,210,6.0,15.0,66,-99.99,,,-99.99,,2013-04-12 23:32:00,
2013-04-12 18:42:00,42.0,32.0,-100.00,SW,235,10.0,16.0,67,-99.99,,,-99.99,,2013-04-12 23:42:00,
2013-04-12 18:52:00,42.0,32.0,-100.00,SSW,205,9.0,21.0,67,-99.99,,,-99.99,,2013-04-12 23:52:00,
2013-04-12 19:02:00,42.0,32.0,-100.00,SSW,205,9.0,21.0,67,-99.99,,,-99.99,,2013-04-13 00:02:00,
2013-04-12 19:12:00,42.0,32.0,-100.00,SSW,205,9.0,21.0,67,-99.99,,,-99.99,,2013-04-13 00:12:00,
2013-04-12 19:22:00,41.0,31.0,-100.00,SW,230,7.0,18.0,68,-99.99,,,-99.99,,2013-04-13 00:22:00,
2013-04-12 19:32:00,41.0,31.0,-100.00,SW,230,7.0,18.0,68,-99.99,,,-99.99,,2013-04-13 00:32:00,
2013-04-12 19:42:00,41.0,31.0,-100.00,SW,230,7.0,18.0,68,-99.99,,,-99.99,,2013-04-13 00:42:00,
2013-04-12 19:52:00,41.0,31.0,-100.00,SW,230,9.0,16.0,68,-99.99,,,-99.99,,2013-04-13 00:52:00,
2013-04-12 20:02:00,41.0,31.0,-100.00,SW,230,9.0,16.0,68,-99.99,,,-99.99,,2013-04-13 01:02:00,
2013-04-12 20:13:00,40.0,32.0,-100.00,SW,225,4.0,14.0,72,-99.99,,,-99.99,,2013-04-13 01:13:00,
2013-04-12 20:22:00,40.0,31.0,-100.00,WSW,240,7.0,15.0,69,-99.99,,,-99.99,,2013-04-13 01:22:00,
2013-04-12 20:32:00,40.0,31.0,-100.00,WSW,240,7.0,15.0,69,-99.99,,,-99.99,,2013-04-13 01:32:00,
2013-04-12 20:42:00,40.0,32.0,-100.00,WSW,245,4.0,9.0,72,-99.99,,,-99.99,,2013-04-13 01:42:00,
2013-04-12 20:52:00,40.0,31.0,-100.00,SW,230,6.0,13.0,70,-99.99,,,-99.99,,2013-04-13 01:52:00,
2013-04-12 21:02:00,40.0,31.0,-100.00,SW,230,6.0,13.0,70,-99.99,,,-99.99,,2013-04-13 02:02:00,
2013-04-12 21:12:00,40.0,31.0,-100.00,SW,230,8.0,16.0,70,-99.99,,,-99.99,,2013-04-13 02:12:00,
2013-04-12 21:22:00,40.0,32.0,-100.00,SW,235,3.0,11.0,72,-99.99,,,-99.99,,2013-04-13 02:22:00,
2013-04-12 21:32:00,40.0,32.0,-100.00,SW,235,3.0,11.0,72,-99.99,,,-99.99,,2013-04-13 02:32:00,
2013-04-12 21:42:00,40.0,31.0,-100.00,SW,225,5.0,9.0,71,-99.99,,,-99.99,,2013-04-13 02:42:00,
2013-04-12 21:53:00,40.0,31.0,-100.00,WSW,255,6.0,17.0,71,-99.99,,,-99.99,,2013-04-13 02:53:00,
2013-04-12 22:02:00,40.0,31.0,-100.00,WSW,255,6.0,17.0,71,-99.99,,,-99.99,,2013-04-13 03:02:00,
2013-04-12 22:12:00,40.0,31.0,-100.00,West,275,4.0,15.0,71,-99.99,,,-99.99,,2013-04-13 03:12:00,
2013-04-12 22:23:00,40.0,32.0,-100.00,SW,235,8.0,16.0,73,-99.99,,,-99.99,,2013-04-13 03:23:00,
2013-04-12 22:33:00,40.0,32.0,-100.00,SW,235,8.0,16.0,73,-99.99,,,-99.99,,2013-04-13 03:33:00,
2013-04-12 22:42:00,38.0,32.0,-100.00,WSW,250,9.0,20.0,77,-99.99,,,-99.99,,2013-04-13 03:42:00,
2013-04-12 22:53:00,38.0,33.0,-100.00,WSW,245,6.0,14.0,82,-99.99,,,-99.99,,2013-04-13 03:53:00,
2013-04-12 23:03:00,38.0,33.0,-100.00,WSW,245,6.0,14.0,82,-99.99,,,-99.99,,2013-04-13 04:03:00,
2013-04-12 23:12:00,37.0,33.0,-100.00,SW,235,5.0,14.0,84,-99.99,,,-99.99,,2013-04-13 04:12:00,
2013-04-12 23:23:00,37.0,34.0,-100.00,SW,220,5.0,9.0,86,-99.99,,,-99.99,,2013-04-13 04:23:00,
2013-04-12 23:33:00,37.0,34.0,-100.00,SW,220,5.0,9.0,86,-99.99,,,-99.99,,2013-04-13 04:33:00,
2013-04-12 23:42:00,37.0,33.0,-100.00,SW,225,4.0,11.0,83,-99.99,,,-99.99,,2013-04-13 04:42:00,
2013-04-12 23:53:00,37.0,32.0,-100.00,SW,235,7.0,11.0,82,-99.99,,,-99.99,,2013-04-13 04:53:00,